Location: Batang Balui
(2.7000°N, 113.7833°E)
Time: 23:53:53
(UTC+00:00)

Meteor 1-25 Rocket - Pass Details

Date: 03 December 2021
Orbit: 837 x 890 km, 81.2° (Epoch: 27 January)

Event Time Altitude Azimuth Distance (km) Brightness Sun altitude
Rises 10:27:18 0° 355° (N) 3,397 7.2 -3.9°
Reaches altitude 10° 10:29:42 10° 355° (N) 2,470 6.5 -4.5°
Maximum altitude 10:35:19 89° 268° (W) 864 4.3 -5.8°
Drops below altitude 10° 10:41:02 10° 175° (S) 2,514 6.9 -7.1°
Sets 10:43:29 0° 175° (S) 3,461 7.6 -7.7°
